Weather in Habaraduwa

Sri Lanka     6°02′20″N   80°12′57″E
temp.,
°C
wind,
m/s
gust,
m/s
humid.,
%
clouds,
%
prec.,
mm/h
press.,
hPa
HPBL,
m
20 september, mon
mon2023:30+27w468698 1.3 1011376
02:30+27w35855 0.3 1008429
05:30+26w358447 1.3 1010369
08:30+28w34765 0.0 1012727
11:30+29w457442 0.1 1010838
14:30+29w5676100 0.1 1008816
17:30+27w468376 0.8 1008580
20:30+27w3485100 2.4 1011281
21 september, tue
tue2123:30+27wsw4685100 3.0 1011446
02:30+26wsw578493 2.3 1009548
05:30+26wsw5784100 5.6 1010581
08:30+27wsw578230 3.2 1012695
11:30+28wsw687769 4.9 1011892
14:30+28w687929 3.4 1008823
17:30+27w698427 6.3 1008718
20:30+26w5886100 0.8 1010592
22 september, wed
wed2223:30+26w588535 1.9 1010581
02:30+26w698572 3.4 1008625
05:30+27w6108569 6.6 1008696
08:30+27w69849 3.5 1010842
11:30+28w698237 6.8 1009868
14:30+28wnw698216 3.4 1006814
17:30+27wnw58845 5.3 1007626
20:30+26w5886100 2.5 1009513
23 september, thu
thu2323:30+26w598864 7.8 1009545
02:30+26w7108697 6.6 1007650
05:30+27w6986100 10.3 1007621
08:30+27wnw698486 2.9 1009853
11:30+28wnw71084100 5.5 1008934
14:30+28wnw71184100 2.3 1006971
17:30+27w7118577 4.3 1007903
20:30+27w7118567 2.8 1009853
24 september, fri
fri2423:30+27w71185100 6.8 1009845
02:30+27wnw71184100 3.8 1007835
05:30+27wnw71184100 6.7 1008854
08:30+27wnw71083100 1.4 1010806
11:30+27w6984100 4.1 1009740
14:30+27w7108397 2.7 1007881
17:30+27w6985100 5.7 1008671
20:30+27wsw71085100 5.1 1009701